Torna al catalogo

STARLINK-32079

AttivoComunicazioniVLEO
NORAD 60336·PAYLOAD·🇺🇸 United States

Lanciato Aug 2, 2024 da Cape Canaveral Space Force Station

Loading…

Prossimi Passaggi (prossime 24 ore)

TLE

AggiornatoSource: CelesTrak SupGP

Epoca: Sep 14, 2026, 14:50 UTC

1 60336C 24136H   26257.61854167 -.00002439  00000+0 -72063-4 0  2572
2 60336  53.1585 277.5229 0001250  75.9158 107.6710 15.34387042    14

Traccia STARLINK-32079 in tempo reale con AllMySat

Download on the App Store